Year,Month,Day,Hour,Minute,Value (Times are PST for windspeed in km/hr)
2019,09,26,00,00,0.00
2019,09,26,00,01,2.70
2019,09,26,00,02,1.60
2019,09,26,00,03,2.30
2019,09,26,00,04,3.00
2019,09,26,00,05,1.50
2019,09,26,00,06,0.00
2019,09,26,00,07,0.00
2019,09,26,00,08,0.00
2019,09,26,00,09,0.00
2019,09,26,00,10,0.00
2019,09,26,00,11,1.10
2019,09,26,00,12,0.10
2019,09,26,00,13,1.10
2019,09,26,00,14,0.50
2019,09,26,00,15,0.00
2019,09,26,00,16,0.00
2019,09,26,00,17,0.00
2019,09,26,00,18,0.00
2019,09,26,00,19,0.00
2019,09,26,00,20,0.00
2019,09,26,00,21,0.00
2019,09,26,00,22,1.90
2019,09,26,00,23,0.50
2019,09,26,00,24,0.10
2019,09,26,00,25,0.00
2019,09,26,00,26,0.00
2019,09,26,00,27,0.00
2019,09,26,00,28,0.00
2019,09,26,00,29,0.00
2019,09,26,00,30,0.10
2019,09,26,00,31,0.00
2019,09,26,00,32,0.00
2019,09,26,00,33,0.00
2019,09,26,00,34,0.00
2019,09,26,00,35,0.00
2019,09,26,00,36,0.00
2019,09,26,00,37,0.00
2019,09,26,00,38,0.00
2019,09,26,00,39,0.00
2019,09,26,00,40,1.40
2019,09,26,00,41,1.90
2019,09,26,00,42,2.30
2019,09,26,00,43,1.50
2019,09,26,00,44,0.00
2019,09,26,00,45,2.80
2019,09,26,00,46,1.60
2019,09,26,00,47,1.50
2019,09,26,00,48,1.20
2019,09,26,00,49,2.10
2019,09,26,00,50,2.30
2019,09,26,00,51,2.30
2019,09,26,00,52,1.40
2019,09,26,00,53,0.20
2019,09,26,00,54,0.20
2019,09,26,00,55,2.30
2019,09,26,00,56,1.50
2019,09,26,00,57,0.10
2019,09,26,00,58,0.00
2019,09,26,00,59,0.00
2019,09,26,01,00,0.80
2019,09,26,01,01,1.60
2019,09,26,01,02,0.70
2019,09,26,01,03,1.40
2019,09,26,01,04,0.70
2019,09,26,01,05,1.90
2019,09,26,01,06,1.20
2019,09,26,01,07,1.90
2019,09,26,01,08,2.30
2019,09,26,01,09,0.90
2019,09,26,01,10,2.30
2019,09,26,01,11,1.70
2019,09,26,01,12,1.50
2019,09,26,01,13,0.70
2019,09,26,01,14,1.00
2019,09,26,01,15,2.50
2019,09,26,01,16,3.30
2019,09,26,01,17,3.40
2019,09,26,01,18,4.40
2019,09,26,01,19,1.30
2019,09,26,01,20,2.00
2019,09,26,01,21,1.70
2019,09,26,01,22,1.40
2019,09,26,01,23,3.00
2019,09,26,01,24,2.90
2019,09,26,01,25,0.80
2019,09,26,01,26,1.40
2019,09,26,01,27,3.80
2019,09,26,01,28,1.20
2019,09,26,01,29,0.60
2019,09,26,01,30,1.60
2019,09,26,01,31,2.20
2019,09,26,01,32,0.60
2019,09,26,01,33,0.20
2019,09,26,01,34,1.10
2019,09,26,01,35,0.90
2019,09,26,01,36,1.90
2019,09,26,01,37,0.20
2019,09,26,01,38,1.30
2019,09,26,01,39,2.10
2019,09,26,01,40,1.70
2019,09,26,01,41,1.40
2019,09,26,01,42,3.50
2019,09,26,01,43,0.90
2019,09,26,01,44,2.30
2019,09,26,01,45,1.90
2019,09,26,01,46,2.80
2019,09,26,01,47,2.90
2019,09,26,01,48,0.90
2019,09,26,01,49,1.40
2019,09,26,01,50,0.90
2019,09,26,01,51,0.20
2019,09,26,01,52,0.40
2019,09,26,01,53,1.00
2019,09,26,01,54,1.70
2019,09,26,01,55,1.40
2019,09,26,01,56,0.70
2019,09,26,01,57,0.50
2019,09,26,01,58,0.90
2019,09,26,01,59,0.90
2019,09,26,02,00,2.20
2019,09,26,02,01,1.20
2019,09,26,02,02,0.80
2019,09,26,02,03,1.10
2019,09,26,02,04,0.40
2019,09,26,02,05,1.30
2019,09,26,02,06,0.70
2019,09,26,02,07,0.60
2019,09,26,02,08,1.60
2019,09,26,02,09,1.70
2019,09,26,02,10,3.10
2019,09,26,02,11,1.70
2019,09,26,02,12,1.60
2019,09,26,02,13,1.70
2019,09,26,02,14,1.70
2019,09,26,02,15,2.20
2019,09,26,02,16,0.70
2019,09,26,02,17,1.90
2019,09,26,02,18,2.50
2019,09,26,02,19,1.90
2019,09,26,02,20,2.30
2019,09,26,02,21,1.60
2019,09,26,02,22,1.70
2019,09,26,02,23,1.20
2019,09,26,02,24,2.10
2019,09,26,02,25,1.70
2019,09,26,02,26,1.70
2019,09,26,02,27,1.90
2019,09,26,02,28,0.10
2019,09,26,02,29,0.00
2019,09,26,02,30,0.00
2019,09,26,02,31,0.00
2019,09,26,02,32,0.00
2019,09,26,02,33,0.00
2019,09,26,02,34,0.00
2019,09,26,02,35,0.00
2019,09,26,02,36,0.00
2019,09,26,02,37,0.00
2019,09,26,02,38,0.00
2019,09,26,02,39,0.00
2019,09,26,02,40,0.00
2019,09,26,02,41,0.00
2019,09,26,02,42,0.50
2019,09,26,02,43,2.50
2019,09,26,02,44,0.90
2019,09,26,02,45,1.90
2019,09,26,02,46,0.50
2019,09,26,02,47,1.20
2019,09,26,02,48,0.70
2019,09,26,02,49,0.10
2019,09,26,02,50,2.30
2019,09,26,02,51,2.30
2019,09,26,02,52,1.10
2019,09,26,02,53,2.40
2019,09,26,02,54,1.60
2019,09,26,02,55,1.60
2019,09,26,02,56,0.80
2019,09,26,02,57,1.30
2019,09,26,02,58,2.00
2019,09,26,02,59,1.20
2019,09,26,03,00,0.40
2019,09,26,03,01,2.80
2019,09,26,03,02,1.10
2019,09,26,03,03,2.20
2019,09,26,03,04,0.70
2019,09,26,03,05,1.70
2019,09,26,03,06,1.20
2019,09,26,03,07,2.00
2019,09,26,03,08,2.10
2019,09,26,03,09,3.50
2019,09,26,03,10,1.30
2019,09,26,03,11,1.30
2019,09,26,03,12,1.50
2019,09,26,03,13,3.10
2019,09,26,03,14,1.60
2019,09,26,03,15,1.70
2019,09,26,03,16,1.40
2019,09,26,03,17,1.00
2019,09,26,03,18,1.70
2019,09,26,03,19,2.10
2019,09,26,03,20,2.70
2019,09,26,03,21,2.30
2019,09,26,03,22,1.40
2019,09,26,03,23,2.50
2019,09,26,03,24,0.50
2019,09,26,03,25,0.00
2019,09,26,03,26,0.00
2019,09,26,03,27,0.00
2019,09,26,03,28,0.00
2019,09,26,03,29,0.00
2019,09,26,03,30,0.00
2019,09,26,03,31,0.00
2019,09,26,03,32,0.00
2019,09,26,03,33,0.00
2019,09,26,03,34,0.00
2019,09,26,03,35,3.30
2019,09,26,03,36,1.50
2019,09,26,03,37,4.00
2019,09,26,03,38,3.50
2019,09,26,03,39,2.80
2019,09,26,03,40,4.40
2019,09,26,03,41,4.30
2019,09,26,03,42,4.00
2019,09,26,03,43,2.80
2019,09,26,03,44,4.60
2019,09,26,03,45,4.50
2019,09,26,03,46,3.10
2019,09,26,03,47,3.90
2019,09,26,03,48,3.90
2019,09,26,03,49,3.20
2019,09,26,03,50,3.00
2019,09,26,03,51,3.60
2019,09,26,03,52,3.10
2019,09,26,03,53,2.70
2019,09,26,03,54,4.40
2019,09,26,03,55,3.50
2019,09,26,03,56,3.90
2019,09,26,03,57,3.80
2019,09,26,03,58,4.50
2019,09,26,03,59,2.30
2019,09,26,04,00,3.90
2019,09,26,04,01,3.10
2019,09,26,04,02,4.30
2019,09,26,04,03,2.80
2019,09,26,04,04,3.10
2019,09,26,04,05,2.70
2019,09,26,04,06,3.70
2019,09,26,04,07,3.30
2019,09,26,04,08,3.00
2019,09,26,04,09,3.00
2019,09,26,04,10,3.60
2019,09,26,04,11,3.70
2019,09,26,04,12,2.50
2019,09,26,04,13,3.10
2019,09,26,04,14,3.80
2019,09,26,04,15,4.10
2019,09,26,04,16,5.30
2019,09,26,04,17,3.70
2019,09,26,04,18,3.30
2019,09,26,04,19,3.70
2019,09,26,04,20,4.10
2019,09,26,04,21,4.80
2019,09,26,04,22,4.00
2019,09,26,04,23,3.80
2019,09,26,04,24,3.80
2019,09,26,04,25,3.50
2019,09,26,04,26,2.90
2019,09,26,04,27,2.50
2019,09,26,04,28,3.30
2019,09,26,04,29,3.70
2019,09,26,04,30,3.20
2019,09,26,04,31,3.30
2019,09,26,04,32,3.40
2019,09,26,04,33,3.10
2019,09,26,04,34,3.00
2019,09,26,04,35,2.10
2019,09,26,04,36,2.50
2019,09,26,04,37,3.10
2019,09,26,04,38,2.40
2019,09,26,04,39,2.30
2019,09,26,04,40,2.50
2019,09,26,04,41,2.40
2019,09,26,04,42,1.20
2019,09,26,04,43,0.90
2019,09,26,04,44,1.20
2019,09,26,04,45,2.20
2019,09,26,04,46,2.30
2019,09,26,04,47,1.90
2019,09,26,04,48,2.00
2019,09,26,04,49,3.00
2019,09,26,04,50,2.00
2019,09,26,04,51,0.20
2019,09,26,04,52,0.00
2019,09,26,04,53,0.40
2019,09,26,04,54,2.70
2019,09,26,04,55,0.00
2019,09,26,04,56,0.00
2019,09,26,04,57,0.00
2019,09,26,04,58,0.00
2019,09,26,04,59,0.00
2019,09,26,05,00,0.00
2019,09,26,05,01,0.00
2019,09,26,05,02,0.00
2019,09,26,05,03,0.00
2019,09,26,05,04,0.00
2019,09,26,05,05,0.00
2019,09,26,05,06,0.00
2019,09,26,05,07,0.00
2019,09,26,05,08,0.00
2019,09,26,05,09,0.00
2019,09,26,05,10,1.20
2019,09,26,05,11,3.20
2019,09,26,05,12,2.90
2019,09,26,05,13,2.00
2019,09,26,05,14,0.00
2019,09,26,05,15,0.60
2019,09,26,05,16,4.10
2019,09,26,05,17,1.50
2019,09,26,05,18,1.70
2019,09,26,05,19,1.90
2019,09,26,05,20,4.30
2019,09,26,05,21,2.30
2019,09,26,05,22,0.70
2019,09,26,05,23,1.70
2019,09,26,05,24,2.20
2019,09,26,05,25,3.00
2019,09,26,05,26,2.70
2019,09,26,05,27,3.90
2019,09,26,05,28,4.50
2019,09,26,05,29,8.10
2019,09,26,05,30,8.40
2019,09,26,05,31,4.70
2019,09,26,05,32,4.30
2019,09,26,05,33,5.90
2019,09,26,05,34,5.90
2019,09,26,05,35,7.20
2019,09,26,05,36,6.30
2019,09,26,05,37,5.80
2019,09,26,05,38,5.50
2019,09,26,05,39,7.10
2019,09,26,05,40,7.90
2019,09,26,05,41,7.20
2019,09,26,05,42,6.50
2019,09,26,05,43,5.80
2019,09,26,05,44,9.60
2019,09,26,05,45,7.20
2019,09,26,05,46,9.30
2019,09,26,05,47,9.10
2019,09,26,05,48,7.60
2019,09,26,05,49,7.70
2019,09,26,05,50,6.20
2019,09,26,05,51,5.30
2019,09,26,05,52,9.00
2019,09,26,05,53,6.00
2019,09,26,05,54,5.20
2019,09,26,05,55,5.40
2019,09,26,05,56,1.60
2019,09,26,05,57,3.00
2019,09,26,05,58,5.90
2019,09,26,05,59,1.70
2019,09,26,06,00,3.80
2019,09,26,06,01,3.90
2019,09,26,06,02,5.60
2019,09,26,06,03,6.90
2019,09,26,06,04,6.20
2019,09,26,06,05,5.80
2019,09,26,06,06,4.80
2019,09,26,06,07,8.40
2019,09,26,06,08,6.40
2019,09,26,06,09,5.20
2019,09,26,06,10,9.50
2019,09,26,06,11,5.80
2019,09,26,06,12,4.20
2019,09,26,06,13,4.90
2019,09,26,06,14,2.40
2019,09,26,06,15,3.50
2019,09,26,06,16,4.00
2019,09,26,06,17,1.40
2019,09,26,06,18,1.40
2019,09,26,06,19,0.60
2019,09,26,06,20,0.20
2019,09,26,06,21,1.70
2019,09,26,06,22,0.20
2019,09,26,06,23,1.10
2019,09,26,06,24,0.20
2019,09,26,06,25,1.40
2019,09,26,06,26,2.70
2019,09,26,06,27,1.90
2019,09,26,06,28,1.50
2019,09,26,06,29,0.70
2019,09,26,06,30,0.40
2019,09,26,06,31,1.80
2019,09,26,06,32,1.20
2019,09,26,06,33,1.20
2019,09,26,06,34,1.40
2019,09,26,06,35,0.70
2019,09,26,06,36,1.20
2019,09,26,06,37,3.20
2019,09,26,06,38,2.20
2019,09,26,06,39,0.80
2019,09,26,06,40,0.70
2019,09,26,06,41,0.70
2019,09,26,06,42,0.90
2019,09,26,06,43,1.70
2019,09,26,06,44,2.90
2019,09,26,06,45,2.40
2019,09,26,06,46,2.00
2019,09,26,06,47,1.00
2019,09,26,06,48,0.50
2019,09,26,06,49,2.80
2019,09,26,06,50,2.70
2019,09,26,06,51,1.00
2019,09,26,06,52,2.20
2019,09,26,06,53,1.10
2019,09,26,06,54,3.50
2019,09,26,06,55,3.00
2019,09,26,06,56,1.90
2019,09,26,06,57,3.50
2019,09,26,06,58,1.40
2019,09,26,06,59,2.20
2019,09,26,07,00,2.40
2019,09,26,07,01,1.90
2019,09,26,07,02,1.70
2019,09,26,07,03,2.50
2019,09,26,07,04,1.40
2019,09,26,07,05,1.30
2019,09,26,07,06,0.20
2019,09,26,07,07,0.40
2019,09,26,07,08,1.10
2019,09,26,07,09,2.30
2019,09,26,07,10,2.20
2019,09,26,07,11,1.50
2019,09,26,07,12,0.60
2019,09,26,07,13,0.10
2019,09,26,07,14,0.00
2019,09,26,07,15,0.60
2019,09,26,07,16,1.60
2019,09,26,07,17,2.50
2019,09,26,07,18,2.40
2019,09,26,07,19,0.10
2019,09,26,07,20,0.80
2019,09,26,07,21,0.70
2019,09,26,07,22,0.00
2019,09,26,07,23,0.00
2019,09,26,07,24,0.00
2019,09,26,07,25,0.00
2019,09,26,07,26,0.00
2019,09,26,07,27,0.00
2019,09,26,07,28,1.30
2019,09,26,07,29,4.90
2019,09,26,07,30,0.60
2019,09,26,07,31,0.00
2019,09,26,07,32,0.00
2019,09,26,07,33,0.00
2019,09,26,07,34,0.00
2019,09,26,07,35,0.00
2019,09,26,07,36,0.00
2019,09,26,07,37,0.00
2019,09,26,07,38,0.00
2019,09,26,07,39,4.10
2019,09,26,07,40,3.30
2019,09,26,07,41,2.60
2019,09,26,07,42,3.30
2019,09,26,07,43,3.90
2019,09,26,07,44,5.00
2019,09,26,07,45,2.40
2019,09,26,07,46,2.30
2019,09,26,07,47,5.00
2019,09,26,07,48,4.80
2019,09,26,07,49,3.10
2019,09,26,07,50,3.60
2019,09,26,07,51,4.40
2019,09,26,07,52,3.40
2019,09,26,07,53,3.30
2019,09,26,07,54,3.60
2019,09,26,07,55,3.60
2019,09,26,07,56,2.80
2019,09,26,07,57,3.70
2019,09,26,07,58,3.50
2019,09,26,07,59,3.00
2019,09,26,08,00,4.40
2019,09,26,08,01,2.60
2019,09,26,08,02,4.70
2019,09,26,08,03,4.00
2019,09,26,08,04,3.70
2019,09,26,08,05,5.30
2019,09,26,08,06,5.30
2019,09,26,08,07,3.50
2019,09,26,08,08,3.50
2019,09,26,08,09,4.90
2019,09,26,08,10,2.90
2019,09,26,08,11,4.00
2019,09,26,08,12,4.80
2019,09,26,08,13,3.30
2019,09,26,08,14,4.30
2019,09,26,08,15,3.00
2019,09,26,08,16,4.80
2019,09,26,08,17,4.50
2019,09,26,08,18,3.50
2019,09,26,08,19,4.30
2019,09,26,08,20,4.50
2019,09,26,08,21,4.30
2019,09,26,08,22,3.90
2019,09,26,08,23,2.60
2019,09,26,08,24,3.20
2019,09,26,08,25,3.00
2019,09,26,08,26,1.20
2019,09,26,08,27,1.10
2019,09,26,08,28,2.90
2019,09,26,08,29,1.60
2019,09,26,08,30,2.40
2019,09,26,08,31,1.70
2019,09,26,08,32,4.60
2019,09,26,08,33,3.50
2019,09,26,08,34,3.30
2019,09,26,08,35,2.70
2019,09,26,08,36,3.00
2019,09,26,08,37,3.00
2019,09,26,08,38,5.00
2019,09,26,08,39,3.60
2019,09,26,08,40,3.90
2019,09,26,08,41,4.30
2019,09,26,08,42,3.80
2019,09,26,08,43,2.20
2019,09,26,08,44,2.20
2019,09,26,08,45,3.60
2019,09,26,08,46,3.30
2019,09,26,08,47,3.30
2019,09,26,08,48,3.80
2019,09,26,08,49,4.00
2019,09,26,08,50,2.70
2019,09,26,08,51,2.20
2019,09,26,08,52,2.70
2019,09,26,08,53,2.50
2019,09,26,08,54,2.60
2019,09,26,08,55,1.10
2019,09,26,08,56,3.60
2019,09,26,08,57,4.10
2019,09,26,08,58,3.00
2019,09,26,08,59,4.60
2019,09,26,09,00,4.20
2019,09,26,09,01,4.10
2019,09,26,09,02,3.00
2019,09,26,09,03,3.10
2019,09,26,09,04,4.60
2019,09,26,09,05,3.10
2019,09,26,09,06,2.70
2019,09,26,09,07,2.30
2019,09,26,09,08,2.90
2019,09,26,09,09,2.60
2019,09,26,09,10,3.00
2019,09,26,09,11,2.40
2019,09,26,09,12,2.90
2019,09,26,09,13,4.60
2019,09,26,09,14,2.70
2019,09,26,09,15,3.10
2019,09,26,09,16,2.10
2019,09,26,09,17,3.30
2019,09,26,09,18,1.70
2019,09,26,09,19,2.20
2019,09,26,09,20,1.60
2019,09,26,09,21,1.90
2019,09,26,09,22,0.00
2019,09,26,09,23,0.00
2019,09,26,09,24,3.30
2019,09,26,09,25,5.40
2019,09,26,09,26,4.40
2019,09,26,09,27,2.40
2019,09,26,09,28,6.30
2019,09,26,09,29,6.70
2019,09,26,09,30,3.40
2019,09,26,09,31,3.10
2019,09,26,09,32,2.40
2019,09,26,09,33,3.40
2019,09,26,09,34,5.90
2019,09,26,09,35,2.60
2019,09,26,09,36,2.90
2019,09,26,09,37,4.40
2019,09,26,09,38,6.40
2019,09,26,09,39,3.30
2019,09,26,09,40,5.70
2019,09,26,09,41,5.10
2019,09,26,09,42,3.80
2019,09,26,09,43,2.30
2019,09,26,09,44,4.20
2019,09,26,09,45,3.00
2019,09,26,09,46,3.80
2019,09,26,09,47,2.10
2019,09,26,09,48,1.10
2019,09,26,09,49,1.30
2019,09,26,09,50,4.10
2019,09,26,09,51,3.50
2019,09,26,09,52,5.00
2019,09,26,09,53,3.30
2019,09,26,09,54,2.10
2019,09,26,09,55,2.40
2019,09,26,09,56,4.20
2019,09,26,09,57,3.00
2019,09,26,09,58,2.30
2019,09,26,09,59,6.20
2019,09,26,10,00,1.30
2019,09,26,10,01,1.60
2019,09,26,10,02,0.90
2019,09,26,10,03,1.40
2019,09,26,10,04,3.50
2019,09,26,10,05,5.80
2019,09,26,10,06,5.30
2019,09,26,10,07,4.60
2019,09,26,10,08,2.50
2019,09,26,10,09,4.40
2019,09,26,10,10,7.50
2019,09,26,10,11,6.30
2019,09,26,10,12,3.30
2019,09,26,10,13,3.20
2019,09,26,10,14,3.30
2019,09,26,10,15,7.20
2019,09,26,10,16,6.10
2019,09,26,10,17,4.30
2019,09,26,10,18,2.30
2019,09,26,10,19,3.70
2019,09,26,10,20,2.30
2019,09,26,10,21,1.60
2019,09,26,10,22,2.40
2019,09,26,10,23,2.20
2019,09,26,10,24,3.20
2019,09,26,10,25,2.00
2019,09,26,10,26,3.60
2019,09,26,10,27,5.90
2019,09,26,10,28,3.80
2019,09,26,10,29,4.90
2019,09,26,10,30,2.80
2019,09,26,10,31,2.90
2019,09,26,10,32,4.10
2019,09,26,10,33,5.10
2019,09,26,10,34,3.80
2019,09,26,10,35,5.70
2019,09,26,10,36,2.80
2019,09,26,10,37,5.60
2019,09,26,10,38,7.10
2019,09,26,10,39,7.40
2019,09,26,10,40,8.40
2019,09,26,10,41,7.30
2019,09,26,10,42,9.80
2019,09,26,10,43,6.80
2019,09,26,10,44,8.80
2019,09,26,10,45,2.50
2019,09,26,10,46,7.40
2019,09,26,10,47,9.30
2019,09,26,10,48,6.70
2019,09,26,10,49,7.70
2019,09,26,10,50,5.90
2019,09,26,10,51,7.40
2019,09,26,10,52,4.10
2019,09,26,10,53,5.50
2019,09,26,10,54,6.20
2019,09,26,10,55,5.90
2019,09,26,10,56,4.80
2019,09,26,10,57,3.70
2019,09,26,10,58,5.40
2019,09,26,10,59,4.30
2019,09,26,11,00,5.00
2019,09,26,11,01,7.70
2019,09,26,11,02,4.00
2019,09,26,11,03,5.10
2019,09,26,11,04,8.70
2019,09,26,11,05,5.40
2019,09,26,11,06,3.60
2019,09,26,11,07,5.60
2019,09,26,11,08,6.50
2019,09,26,11,09,5.30
2019,09,26,11,10,5.10
2019,09,26,11,11,3.30
2019,09,26,11,12,4.80
2019,09,26,11,13,3.10
2019,09,26,11,14,3.80
2019,09,26,11,15,5.10
2019,09,26,11,16,4.00
2019,09,26,11,17,4.60
2019,09,26,11,18,3.00
2019,09,26,11,19,3.60
2019,09,26,11,20,3.70
2019,09,26,11,21,3.20
2019,09,26,11,22,1.20
2019,09,26,11,23,1.60
2019,09,26,11,24,9.50
2019,09,26,11,25,4.10
2019,09,26,11,26,4.30
2019,09,26,11,27,5.30
2019,09,26,11,28,3.00
2019,09,26,11,29,3.30
2019,09,26,11,30,3.80
2019,09,26,11,31,2.80
2019,09,26,11,32,3.90
2019,09,26,11,33,3.40
2019,09,26,11,34,5.00
2019,09,26,11,35,7.30
2019,09,26,11,36,3.90
2019,09,26,11,37,5.30
2019,09,26,11,38,3.80
2019,09,26,11,39,4.70
2019,09,26,11,40,2.50
2019,09,26,11,41,4.60
2019,09,26,11,42,4.80
2019,09,26,11,43,3.90
2019,09,26,11,44,4.30
2019,09,26,11,45,5.10
2019,09,26,11,46,9.00
2019,09,26,11,47,6.90
2019,09,26,11,48,4.50
2019,09,26,11,49,6.10
2019,09,26,11,50,5.70
2019,09,26,11,51,7.90
2019,09,26,11,52,3.00
2019,09,26,11,53,5.10
2019,09,26,11,54,2.60
2019,09,26,11,55,3.80
2019,09,26,11,56,5.40
2019,09,26,11,57,2.90
2019,09,26,11,58,3.00
2019,09,26,11,59,4.60
2019,09,26,12,00,6.10
2019,09,26,12,01,4.00
2019,09,26,12,02,4.10
2019,09,26,12,03,5.80
2019,09,26,12,04,1.90
2019,09,26,12,05,6.40
2019,09,26,12,06,7.30
2019,09,26,12,07,6.60
2019,09,26,12,08,11.10
2019,09,26,12,09,6.60
2019,09,26,12,10,2.00
2019,09,26,12,11,4.80
2019,09,26,12,12,3.80
2019,09,26,12,13,4.40
2019,09,26,12,14,7.60
2019,09,26,12,15,8.90
2019,09,26,12,16,7.80
2019,09,26,12,17,6.90
2019,09,26,12,18,5.70
2019,09,26,12,19,5.30
2019,09,26,12,20,6.60
2019,09,26,12,21,6.80
2019,09,26,12,22,8.20
2019,09,26,12,23,5.40
2019,09,26,12,24,3.00
2019,09,26,12,25,6.80
2019,09,26,12,26,5.80
2019,09,26,12,27,6.60
2019,09,26,12,28,9.90
2019,09,26,12,29,7.60
2019,09,26,12,30,4.50
2019,09,26,12,31,4.90
2019,09,26,12,32,5.00
2019,09,26,12,33,6.60
2019,09,26,12,34,7.10
2019,09,26,12,35,4.10
2019,09,26,12,36,6.90
2019,09,26,12,37,5.60
2019,09,26,12,38,8.20
2019,09,26,12,39,8.20
2019,09,26,12,40,9.50
2019,09,26,12,41,3.50
2019,09,26,12,42,6.90
2019,09,26,12,43,8.70
2019,09,26,12,44,8.30
2019,09,26,12,45,7.20
2019,09,26,12,46,8.10
2019,09,26,12,47,8.60
2019,09,26,12,48,7.30
2019,09,26,12,49,9.60
2019,09,26,12,50,7.30
2019,09,26,12,51,6.60
2019,09,26,12,52,7.70
2019,09,26,12,53,3.20
2019,09,26,12,54,6.60
2019,09,26,12,55,6.40
2019,09,26,12,56,9.70
2019,09,26,12,57,7.40
2019,09,26,12,58,5.80
2019,09,26,12,59,5.60
2019,09,26,13,00,5.90
2019,09,26,13,01,3.70
2019,09,26,13,02,3.00
2019,09,26,13,03,5.90
2019,09,26,13,04,4.60
2019,09,26,13,05,4.00
2019,09,26,13,06,7.10
2019,09,26,13,07,6.40
2019,09,26,13,08,5.40
2019,09,26,13,09,2.70
2019,09,26,13,10,9.10
2019,09,26,13,11,2.50
2019,09,26,13,12,7.10
2019,09,26,13,13,4.90
2019,09,26,13,14,9.30
2019,09,26,13,15,8.00
2019,09,26,13,16,5.90
2019,09,26,13,17,7.60
2019,09,26,13,18,4.50
2019,09,26,13,19,3.20
2019,09,26,13,20,8.30
2019,09,26,13,21,10.00
2019,09,26,13,22,9.10
2019,09,26,13,23,8.40
2019,09,26,13,24,7.20
2019,09,26,13,25,9.70
2019,09,26,13,26,6.60
2019,09,26,13,27,8.80
2019,09,26,13,28,11.50
2019,09,26,13,29,8.30
2019,09,26,13,30,6.20
2019,09,26,13,31,8.00
2019,09,26,13,32,13.20
2019,09,26,13,33,12.90
2019,09,26,13,34,14.20
2019,09,26,13,35,10.90
2019,09,26,13,36,9.30
2019,09,26,13,37,8.90
2019,09,26,13,38,9.50
2019,09,26,13,39,8.20
2019,09,26,13,40,11.80
2019,09,26,13,41,10.00
2019,09,26,13,42,8.90
2019,09,26,13,43,12.30
2019,09,26,13,44,9.70
2019,09,26,13,45,7.60
2019,09,26,13,46,10.20
2019,09,26,13,47,9.50
2019,09,26,13,48,6.40
2019,09,26,13,49,7.30
2019,09,26,13,50,6.40
2019,09,26,13,51,8.50
2019,09,26,13,52,10.10
2019,09,26,13,53,9.20
2019,09,26,13,54,8.40
2019,09,26,13,55,12.10
2019,09,26,13,56,7.90
2019,09,26,13,57,14.20
2019,09,26,13,58,7.50
2019,09,26,13,59,3.10
2019,09,26,14,00,9.80
2019,09,26,14,01,13.20
2019,09,26,14,02,12.30
2019,09,26,14,03,12.60
2019,09,26,14,04,11.60
2019,09,26,14,05,8.00
2019,09,26,14,06,6.60
2019,09,26,14,07,7.50
2019,09,26,14,08,4.80
2019,09,26,14,09,2.60
2019,09,26,14,10,8.80
2019,09,26,14,11,12.30
2019,09,26,14,12,6.40
2019,09,26,14,13,7.70
2019,09,26,14,14,6.20
2019,09,26,14,15,12.70
2019,09,26,14,16,9.20
2019,09,26,14,17,7.40
2019,09,26,14,18,7.20
2019,09,26,14,19,12.40
2019,09,26,14,20,10.60
2019,09,26,14,21,10.50
2019,09,26,14,22,12.10
2019,09,26,14,23,12.30
2019,09,26,14,24,15.40
2019,09,26,14,25,12.60
2019,09,26,14,26,9.10
2019,09,26,14,27,12.30
2019,09,26,14,28,10.20
2019,09,26,14,29,6.00
2019,09,26,14,30,7.90
2019,09,26,14,31,9.30
2019,09,26,14,32,10.80
2019,09,26,14,33,9.70
2019,09,26,14,34,6.30
2019,09,26,14,35,8.60
2019,09,26,14,36,8.70
2019,09,26,14,37,7.90
2019,09,26,14,38,6.30
2019,09,26,14,39,7.20
2019,09,26,14,40,9.80
2019,09,26,14,41,11.70
2019,09,26,14,42,10.80
2019,09,26,14,43,13.10
2019,09,26,14,44,10.30
2019,09,26,14,45,12.10
2019,09,26,14,46,11.70
2019,09,26,14,47,12.10
2019,09,26,14,48,9.40
2019,09,26,14,49,10.70
2019,09,26,14,50,11.30
2019,09,26,14,51,8.10
2019,09,26,14,52,8.40
2019,09,26,14,53,9.70
2019,09,26,14,54,11.50
2019,09,26,14,55,6.00
2019,09,26,14,56,9.50
2019,09,26,14,57,9.20
2019,09,26,14,58,9.30
2019,09,26,14,59,10.50
2019,09,26,15,00,7.40
2019,09,26,15,01,8.80
2019,09,26,15,02,8.50
2019,09,26,15,03,8.20
2019,09,26,15,04,8.10
2019,09,26,15,05,14.20
2019,09,26,15,06,13.40
2019,09,26,15,07,10.90
2019,09,26,15,08,13.70
2019,09,26,15,09,11.00
2019,09,26,15,10,9.20
2019,09,26,15,11,10.70
2019,09,26,15,12,8.90
2019,09,26,15,13,8.40
2019,09,26,15,14,6.60
2019,09,26,15,15,5.30
2019,09,26,15,16,4.90
2019,09,26,15,17,5.40
2019,09,26,15,18,4.70
2019,09,26,15,19,4.30
2019,09,26,15,20,7.20
2019,09,26,15,21,6.50
2019,09,26,15,22,6.30
2019,09,26,15,23,7.10
2019,09,26,15,24,4.10
2019,09,26,15,25,4.80
2019,09,26,15,26,9.20
2019,09,26,15,27,5.40
2019,09,26,15,28,4.40
2019,09,26,15,29,7.50
2019,09,26,15,30,9.20
2019,09,26,15,31,5.10
2019,09,26,15,32,12.20
2019,09,26,15,33,11.00
2019,09,26,15,34,14.20
2019,09,26,15,35,6.70
2019,09,26,15,36,6.00
2019,09,26,15,37,2.80
2019,09,26,15,38,4.00
2019,09,26,15,39,4.10
2019,09,26,15,40,5.80
2019,09,26,15,41,3.60
2019,09,26,15,42,6.00
2019,09,26,15,43,3.00
2019,09,26,15,44,6.70
2019,09,26,15,45,5.70
2019,09,26,15,46,6.80
2019,09,26,15,47,4.00
2019,09,26,15,48,5.90
2019,09,26,15,49,2.50
2019,09,26,15,50,9.30
2019,09,26,15,51,8.90
2019,09,26,15,52,10.70
2019,09,26,15,53,10.10
2019,09,26,15,54,12.20
2019,09,26,15,55,9.70
2019,09,26,15,56,11.00
2019,09,26,15,57,10.00
2019,09,26,15,58,13.10
2019,09,26,15,59,8.70
2019,09,26,16,00,8.60
2019,09,26,16,01,2.50
2019,09,26,16,02,7.30
2019,09,26,16,03,6.90
2019,09,26,16,04,6.90
2019,09,26,16,05,4.60
2019,09,26,16,06,8.20
2019,09,26,16,07,6.60
2019,09,26,16,08,6.40
2019,09,26,16,09,9.40
2019,09,26,16,10,8.00
2019,09,26,16,11,5.90
2019,09,26,16,12,8.60
2019,09,26,16,13,8.20
2019,09,26,16,14,12.50
2019,09,26,16,15,8.80
2019,09,26,16,16,9.20
2019,09,26,16,17,11.60
2019,09,26,16,18,11.20
2019,09,26,16,19,10.90
2019,09,26,16,20,8.70
2019,09,26,16,21,7.40
2019,09,26,16,22,7.70
2019,09,26,16,23,7.70
2019,09,26,16,24,6.10
2019,09,26,16,25,5.50
2019,09,26,16,26,6.20
2019,09,26,16,27,9.60
2019,09,26,16,28,4.50
2019,09,26,16,29,7.20
2019,09,26,16,30,10.10
2019,09,26,16,31,8.80
2019,09,26,16,32,8.60
2019,09,26,16,33,7.90
2019,09,26,16,34,5.90
2019,09,26,16,35,2.20
2019,09,26,16,36,2.20
2019,09,26,16,37,2.00
2019,09,26,16,38,5.20
2019,09,26,16,39,9.60
2019,09,26,16,40,8.10
2019,09,26,16,41,4.10
2019,09,26,16,42,9.90
2019,09,26,16,43,7.40
2019,09,26,16,44,8.40
2019,09,26,16,45,8.80
2019,09,26,16,46,12.20
2019,09,26,16,47,8.80
2019,09,26,16,48,11.60
2019,09,26,16,49,9.90
2019,09,26,16,50,5.70
2019,09,26,16,51,10.70
2019,09,26,16,52,6.40
2019,09,26,16,53,7.50
2019,09,26,16,54,9.40
2019,09,26,16,55,8.90
2019,09,26,16,56,7.90
2019,09,26,16,57,6.60
2019,09,26,16,58,7.00
2019,09,26,16,59,5.90
2019,09,26,17,00,5.20
2019,09,26,17,01,5.10
2019,09,26,17,02,7.70
2019,09,26,17,03,6.80
2019,09,26,17,04,5.10
2019,09,26,17,05,4.70
2019,09,26,17,06,4.30
2019,09,26,17,07,4.70
2019,09,26,17,08,5.90
2019,09,26,17,09,5.10
2019,09,26,17,10,5.60
2019,09,26,17,11,6.90
2019,09,26,17,12,6.60
2019,09,26,17,13,6.10
2019,09,26,17,14,5.10
2019,09,26,17,15,5.90
2019,09,26,17,16,4.40
2019,09,26,17,17,6.30
2019,09,26,17,18,7.50
2019,09,26,17,19,6.00
2019,09,26,17,20,4.60
2019,09,26,17,21,4.00
2019,09,26,17,22,4.10
2019,09,26,17,23,4.10
2019,09,26,17,24,4.90
2019,09,26,17,25,3.50
2019,09,26,17,26,3.60
2019,09,26,17,27,3.80
2019,09,26,17,28,4.00
2019,09,26,17,29,5.90
2019,09,26,17,30,5.60
2019,09,26,17,31,4.50
2019,09,26,17,32,3.30
2019,09,26,17,33,4.60
2019,09,26,17,34,3.90
2019,09,26,17,35,4.80
2019,09,26,17,36,6.60
2019,09,26,17,37,7.00
2019,09,26,17,38,7.70
2019,09,26,17,39,7.20
2019,09,26,17,40,5.30
2019,09,26,17,41,8.70
2019,09,26,17,42,6.80
2019,09,26,17,43,7.40
2019,09,26,17,44,4.10
2019,09,26,17,45,4.00
2019,09,26,17,46,6.10
2019,09,26,17,47,6.70
2019,09,26,17,48,6.80
2019,09,26,17,49,4.00
2019,09,26,17,50,4.10
2019,09,26,17,51,6.00
2019,09,26,17,52,10.50
2019,09,26,17,53,6.40
2019,09,26,17,54,7.20
2019,09,26,17,55,6.20
2019,09,26,17,56,4.30
2019,09,26,17,57,1.90
2019,09,26,17,58,1.30
2019,09,26,17,59,3.50
2019,09,26,18,00,2.30
2019,09,26,18,01,3.90
2019,09,26,18,02,3.80
2019,09,26,18,03,4.00